Regional Weather Roundup
Issued by NWS

Home | Current Version | Previous Version | Graphics & Text | Print | Product List | Glossary Off
Versions: 1 2 3 4 5 6 7 8 9 10 11 12 13 14 15 16 17 18 19 20 21 22 23 24 25 26 27 28 29 30 31 32 33 34 35 36 37 38 39 40 41 42 43 44 45 46 47 48 49 50

000
ASUS43 KMKX 291207
RWRWI

WISCONSIN REGIONAL WEATHER ROUNDUP
NATIONAL WEATHER SERVICE MILWAUKEE/SULLIVAN WI
700 AM CDT FRI MAY 29 2015

NOTE: "FAIR" INDICATES FEW OR NO CLOUDS BELOW 12,000 FEET WITH NO
SIGNIFICANT WEATHER AND/OR OBSTRUCTIONS TO VISIBILITY.

WIZ001-002-006>008-014>016-023>028-291300-
NORTHWEST WISCONSIN

CITY           SKY/WX    TMP DP  RH WIND       PRES   REMARKS
SUPERIOR ARPT  PTSUNNY   44  42  94 N3        29.88R
ASHLAND        LGT RAIN  61  59  93 S6        29.88S
6HR MIN TEMP:  44; 6HR MAX TEMP:  65; 6HR PCP:  0.04;

HAYWARD        RAIN      61  58  90 S5        29.89F FOG
6HR MIN TEMP:  61; 6HR MAX TEMP:  68; 6HR PCP:  0.07;

SIREN          CLOUDY    62  60  94 S3        29.87F
CUMBERLAND     LGT RAIN  59  57  94 S9        29.89F
RICE LAKE      LGT RAIN  61  58  90 SE6       29.91S
CHETEK         CLOUDY    61  60  95 SE7       29.90F
LADYSMITH      CLOUDY    63  58  83 SE5       29.93S
EAU CLAIRE     CLOUDY    65  59  81 S8        29.90S
6HR MIN TEMP:  62; 6HR MAX TEMP:  67; 6HR PCP:  0.06;

MENOMONIE      CLOUDY    63  61  94 SE3       29.90S
6HR MIN TEMP:  62; 6HR MAX TEMP:  67; 6HR PCP:  0.06;

NEW RICHMOND   DRIZZLE   61  61  99 S5        29.89S
OSCEOLA        DRIZZLE   62  62 100 SE5       29.90F
$$

WIZ003>005-009-010-017-018-291300-
NORTH CENTRAL WISCONSIN

CITY           SKY/WX    TMP DP  RH WIND       PRES   REMARKS
MANITOWISH WTR CLOUDY    59  57  94 SE6       29.94S
ARBOR VITAE    LGT RAIN  62  56  80 S7        29.95S
WOODRUFF       LGT RAIN  62  56  80 S7        29.95S
RHINELANDER    CLOUDY    62  56  80 S5        29.96F
6HR MIN TEMP:  60; 6HR MAX TEMP:  65; 6HR PCP: TRACE;

EAGLE RIVER    LGT RAIN  61  53  74 CALM      29.96S
LAND O LAKES   LGT RAIN  62  55  77 CALM      29.96S
PHILLIPS       PTSUNNY   61  55  81 S7        29.93S
TOMAHAWK       LGT RAIN  59  56  89 CALM      29.96S
MEDFORD        CLOUDY    60  58  93 SE7       29.94F
MERRILL        CLOUDY    62  58  88 S3        29.96F
$$

WIZ029-030-035-036-043>047-291300-
CENTRAL WISCONSIN

CITY           SKY/WX    TMP DP  RH WIND       PRES   REMARKS
WAUSAU         CLOUDY    63  58  83 S7        29.95F
6HR MIN TEMP:  63; 6HR MAX TEMP:  65; 6HR PCP: TRACE;

MOSINEE        MOSUNNY   61  61 100 S5        29.98F
MARSHFIELD     CLOUDY    62  59  90 S9        29.95S
6HR MIN TEMP:  61; 6HR MAX TEMP:  67; 6HR PCP:  0.02;

STEVENS POINT  CLOUDY    60  58  95 SE3       29.97F
WAUPACA        LGT RAIN  64  63  95 CALM      29.98F
WAUTOMA        NOT AVBL
WISC RAPIDS    CLOUDY    63  59  87 S7        29.97F
6HR MIN TEMP:  61; 6HR MAX TEMP:  67; 6HR PCP:  0.05;

CAMP DOUGLAS   NOT AVBL
$$

WIZ011>013-019>022-031-037>040-048>050-291300-
NORTHEAST WISCONSIN

CITY           SKY/WX    TMP DP  RH WIND       PRES   REMARKS
ANTIGO         CLOUDY    59  56  89 S6        29.98S
SHAWANO        RAIN      64  58  79 CALM      29.98F
OCONTO         CLOUDY    65  58  78 S5        29.98F
STURGEON BAY   CLOUDY    61  52  72 S13G21    30.02S
6HR MIN TEMP:  59; 6HR MAX TEMP:  63;

GREEN BAY      LGT RAIN  65  58  78 S5        29.99F
6HR MIN TEMP:  64; 6HR MAX TEMP:  68; 6HR PCP: TRACE;

MANITOWOC      NOT AVBL
APPLETON       DRIZZLE   64  57  77 SW5       29.99F
CLINTONVILLE   DRIZZLE   63  57  82 S3        29.98S
OSHKOSH        LGT RAIN  64  58  80 SE3       29.99S
6HR MIN TEMP:  64; 6HR MAX TEMP:  67; 6HR PCP: TRACE;

$$

WIZ032>034-041-042-053>061-291300-
SOUTHWEST WISCONSIN

CITY           SKY/WX    TMP DP  RH WIND       PRES   REMARKS
LA CROSSE      MOSUNNY   67  62  84 S8        29.92R
6HR MIN TEMP:  65; 6HR MAX TEMP:  70; 6HR PCP:  0.04;

SPARTA         MOSUNNY   60  59  96 CALM      29.95S FOG
VIROQUA        MOSUNNY   62  62 100 SE9       29.95F
BOSCOBEL       CLOUDY    65  62  90 CALM      29.96S
6HR MIN TEMP:  62; 6HR MAX TEMP:  65; 6HR PCP:  0.03;

PRAIRIE DU CHI CLOUDY    64  61  90 E5        29.95R
PLATTEVILLE    CLOUDY    64  62  96 SE12      29.98R
$$

WIZ056-057-062-063-064-067-068-291300-
SOUTH CENTRAL WISCONSIN

CITY           SKY/WX    TMP DP  RH WIND       PRES   REMARKS
REEDSBURG      CLOUDY    63  61  96 SE3       29.96F
BARABOO/DELLS  LGT RAIN  62  60  93 S6        29.98S
LONE ROCK      NOT AVBL
MINERAL POINT  CLOUDY    64  63  94 SE8       29.98S
MADISON        TSTM      63  61  93 CALM      30.01S FOG
6HR MIN TEMP:  63; 6HR MAX TEMP:  69; 6HR PCP:  0.20;

MIDDLETON      CLOUDY    65  64  96 SE10      30.01R
WATERTOWN      PTSUNNY  N/A N/A N/A CALM      30.01R
MONROE         CLOUDY    63  59  88 CALM      30.00S
JANESVILLE     NOT AVBL
$$

WIZ051-052-058>065-066-070>072-291300-
SOUTHEAST WISCONSIN

CITY           SKY/WX    TMP DP  RH WIND       PRES   REMARKS
MILWAUKEE      PTSUNNY   65  56  72 S8        30.01S
6HR MIN TEMP:  59; 6HR MAX TEMP:  65;

WAUKESHA       MOSUNNY   64  55  72 S5        30.03R
MILWAUKEE/TIMM MOSUNNY   64  55  72 CALM      30.02S
RACINE         MOSUNNY   66  57  72 CALM      30.04R
6HR MIN TEMP:  59; 6HR MAX TEMP:  66;

BURLINGTON     PTSUNNY   59  57  94 CALM      30.02S
KENOSHA        MOSUNNY   67  60  78 S6        30.02S
6HR MIN TEMP:  61; 6HR MAX TEMP:  67;

FOND DU LAC    CLOUDY    65  60  84 S3        30.00S
6HR MIN TEMP:  64; 6HR MAX TEMP:  67;

SHEBOYGAN      PTSUNNY   60  55  83 S3        30.01R
6HR MIN TEMP:  58; 6HR MAX TEMP:  60;

WEST BEND      PTSUNNY   61  55  82 CALM      30.01F
JUNEAU         CLOUDY    63  57  82 CALM      30.02S
$$

LSZ147-162-291300-
LAKE SUPERIOR

STATION/POSITION TIME  TEMP    WIND        PRES    WAVE
                       AIR SEA DIR/SP/G            HT/PER
                 (UTC) (F)     (DEG/KT/KT) (MB)    (FT/S)
W MID LAKE BUOY  1050   40 37  180/  4/  4   N/A     1/ 4
DEVILS ISLAND    1100   43     170/  2/  2   N/A
PORT WING        1140   41      10/  4/  9   N/A
SAXON HARBOR     1140   60        CALM       N/A
$$

LMZ867-665-643>646-291300-
LAKE MICHIGAN

STATION/POSITION TIME  TEMP    WIND        PRES    WAVE
                       AIR SEA DIR/SP/G            HT/PER
                 (UTC) (F)     (DEG/KT/KT) (MB)    (FT/S)
CHAMBERS ISLAND  1000   63     140/  7/ 15   N/A
N MID LAKE BUOY  1050   45 36  170/  6/  8   N/A     1
NORTHPORT PIER   1100   58     150/  7/ 12   N/A
SISTER BAY       1118   59     150/ 15/ 19   N/A
ALGOMA LAKESHORE 1108             CALM       N/A
KEWAUNEE LAKESHO 1100   52     170/  5/  7   N/A
SHEBOYGAN LAKESH 1100   51     180/ 10/ 11   N/A
PORT WASHINGTON  1140   55     200/  2/  3   N/A
ATWATER BUOY     1100   52     170/  4/  6   N/A
MILWAUKEE LAKESH 1100   55     170/  2/  3   N/A
S MID LAKE BUOY  1050   47 38  160/ 10/ 12   N/A     1
KENOSHA   LAKESH 1100   56     160/  6/  7   N/A
$$

TC  - TEMPERATURE IN CELSIUS
VSB - VISIBILITY IN STATUTE MILES
WCI - WIND CHILL INDEX
HX  - HEAT INDEX



USA.gov is the U.S. government's official web portal to all federal, state and local government web resources and services.